TimeEDT,TemperatureF,Dew PointF,Humidity,Sea Level PressureIn,VisibilityMPH,Wind Direction,Wind SpeedMPH,Gust SpeedMPH,PrecipitationIn,Events,Conditions,WindDirDegrees,DateUTC
12:54 AM,57.0,55.0,93,30.07,10.0,Calm,Calm,-,N/A,,Clear,0,2013-06-15 04:54:00
1:54 AM,55.0,53.1,93,30.07,4.0,Calm,Calm,-,N/A,,Clear,0,2013-06-15 05:54:00
2:23 AM,53.6,51.8,94,30.06,1.5,Calm,Calm,-,N/A,,Clear,0,2013-06-15 06:23:00
2:31 AM,53.6,51.8,94,30.06,0.8,Calm,Calm,-,N/A,,Clear,0,2013-06-15 06:31:00
2:36 AM,53.6,51.8,94,30.05,2.0,Calm,Calm,-,N/A,,Clear,0,2013-06-15 06:36:00
2:43 AM,55.4,53.6,94,30.05,6.0,Calm,Calm,-,N/A,,Clear,0,2013-06-15 06:43:00
2:50 AM,51.8,51.8,100,30.05,1.5,Calm,Calm,-,N/A,,Clear,0,2013-06-15 06:50:00
2:54 AM,51.1,50.0,96,30.05,0.8,Calm,Calm,-,N/A,,Clear,0,2013-06-15 06:54:00
2:59 AM,51.8,50.0,94,30.05,0.2,Calm,Calm,-,N/A,Fog,Fog,0,2013-06-15 06:59:00
3:10 AM,51.8,50.0,94,30.05,1.0,Calm,Calm,-,N/A,,Mist,0,2013-06-15 07:10:00
3:12 AM,51.8,50.0,94,30.06,2.5,Calm,Calm,-,N/A,,Partly Cloudy,0,2013-06-15 07:12:00
3:21 AM,51.8,50.0,94,30.07,1.2,West,3.5,-,N/A,,Partly Cloudy,280,2013-06-15 07:21:00
3:26 AM,51.8,50.0,94,30.07,4.0,Calm,Calm,-,N/A,,Partly Cloudy,0,2013-06-15 07:26:00
3:54 AM,54.0,51.1,90,30.07,5.0,Calm,Calm,-,N/A,,Clear,0,2013-06-15 07:54:00
4:00 AM,51.8,51.8,100,30.09,1.2,Calm,Calm,-,N/A,,Clear,0,2013-06-15 08:00:00
4:05 AM,50.0,48.2,94,30.09,0.5,Calm,Calm,-,N/A,Fog,Fog,0,2013-06-15 08:05:00
4:13 AM,51.8,48.2,88,30.09,0.2,Calm,Calm,-,N/A,Fog,Fog,0,2013-06-15 08:13:00
4:15 AM,50.0,48.2,94,30.09,0.5,Calm,Calm,-,N/A,Fog,Fog,0,2013-06-15 08:15:00
4:28 AM,51.8,50.0,94,30.09,0.2,Calm,Calm,-,N/A,Fog,Fog,0,2013-06-15 08:28:00
4:35 AM,51.8,51.8,100,30.09,0.8,Calm,Calm,-,N/A,,Mist,0,2013-06-15 08:35:00
4:51 AM,51.8,48.2,88,30.10,0.2,Calm,Calm,-,N/A,Fog,Fog,0,2013-06-15 08:51:00
4:54 AM,50.0,48.9,96,30.09,0.2,Calm,Calm,-,N/A,Fog,Fog,0,2013-06-15 08:54:00
5:10 AM,50.0,48.2,94,30.11,0.5,Calm,Calm,-,N/A,Fog,Fog,0,2013-06-15 09:10:00
5:33 AM,51.8,50.0,94,30.11,1.2,Calm,Calm,-,N/A,,Partly Cloudy,0,2013-06-15 09:33:00
5:41 AM,51.8,48.2,88,30.11,3.0,Calm,Calm,-,N/A,,Partly Cloudy,0,2013-06-15 09:41:00
5:46 AM,50.0,48.2,94,30.11,1.8,Calm,Calm,-,N/A,,Clear,0,2013-06-15 09:46:00
5:50 AM,48.2,48.2,100,30.11,0.2,Calm,Calm,-,N/A,Fog,Fog,0,2013-06-15 09:50:00
5:54 AM,50.0,48.0,93,30.11,0.2,Calm,Calm,-,N/A,Fog,Fog,0,2013-06-15 09:54:00
6:08 AM,50.0,48.2,94,30.12,0.2,Calm,Calm,-,0.01,Fog,Fog,0,2013-06-15 10:08:00
6:17 AM,51.8,50.0,94,30.11,0.2,Calm,Calm,-,0.01,Fog,Fog,0,2013-06-15 10:17:00
6:27 AM,51.8,48.2,88,30.11,1.0,Calm,Calm,-,0.01,,Clear,0,2013-06-15 10:27:00
6:35 AM,51.8,50.0,94,30.12,5.0,Calm,Calm,-,0.01,,Clear,0,2013-06-15 10:35:00
6:39 AM,51.8,50.0,94,30.12,1.8,Calm,Calm,-,0.01,,Clear,0,2013-06-15 10:39:00
6:49 AM,51.8,50.0,94,30.12,3.0,Calm,Calm,-,0.01,,Clear,0,2013-06-15 10:49:00
6:54 AM,52.0,51.1,97,30.11,3.0,Calm,Calm,-,0.01,,Clear,0,2013-06-15 10:54:00
7:54 AM,57.9,55.0,90,30.13,8.0,Calm,Calm,-,N/A,,Clear,0,2013-06-15 11:54:00
8:54 AM,64.9,59.0,81,30.14,10.0,South,3.5,-,N/A,,Clear,190,2013-06-15 12:54:00
9:54 AM,70.0,59.0,68,30.13,10.0,South,4.6,-,N/A,,Clear,190,2013-06-15 13:54:00
10:54 AM,73.0,57.9,59,30.12,10.0,SSW,5.8,-,N/A,,Clear,200,2013-06-15 14:54:00
11:54 AM,75.0,55.0,50,30.10,10.0,South,4.6,-,N/A,,Clear,190,2013-06-15 15:54:00
12:54 PM,75.9,54.0,46,30.09,10.0,SSW,6.9,-,N/A,,Clear,210,2013-06-15 16:54:00
1:54 PM,79.0,53.1,40,30.07,10.0,ESE,4.6,-,N/A,,Clear,110,2013-06-15 17:54:00
2:54 PM,79.0,54.0,42,30.05,10.0,SSW,6.9,-,N/A,,Partly Cloudy,200,2013-06-15 18:54:00
3:54 PM,77.0,55.9,48,30.05,10.0,South,4.6,-,N/A,,Clear,180,2013-06-15 19:54:00
4:54 PM,75.9,57.0,52,30.05,10.0,West,5.8,-,N/A,,Clear,270,2013-06-15 20:54:00
5:54 PM,73.9,59.0,59,30.04,10.0,Calm,Calm,-,0.00,,Mostly Cloudy,0,2013-06-15 21:54:00
6:54 PM,73.9,59.0,59,30.04,10.0,Calm,Calm,-,0.00,,Clear,0,2013-06-15 22:54:00
7:54 PM,73.9,60.1,62,30.01,10.0,SE,4.6,-,N/A,,Clear,130,2013-06-15 23:54:00
8:54 PM,72.0,60.1,66,29.99,10.0,SE,4.6,-,N/A,,Scattered Clouds,130,2013-06-16 00:54:00
9:54 PM,72.0,60.1,66,29.99,10.0,SE,3.5,-,N/A,,Scattered Clouds,140,2013-06-16 01:54:00
10:54 PM,71.1,60.1,68,30.00,10.0,Calm,Calm,-,N/A,,Mostly Cloudy,0,2013-06-16 02:54:00
11:54 PM,71.1,59.0,66,29.99,10.0,SSE,4.6,-,N/A,,Overcast,160,2013-06-16 03:54:00